RH
35 38 39 41 38 36 44 50 51 52 49 47 51 54 56 56 57 62 66 75 75 62 53 45 33 21 14 13 11 11 12 11 12 9 7 7 6 7 7 7 8 8 8 8 9 11 11 11 11 12 12 10 10 15 18 15 16 24 29 42 62 72 63 56 54 59 74 77 74 80 81 88 97 95 95 93 87 86 84 91 98 94 83 75 73 71
38 47 60 63 48 31 31 35 35 35 35 41 49 45 46 47 48 59 63 65 72 67 56 52 46 33 27 27 20 16 13 11 13 11 8 7 8 8 7 7 7 7 8 8 9 9 10 11 10 11 13 11 9 13 18 16 17 24 33 46 62 70 61 51 47 53 72 79 74 80 85 89 94 93 96 94 86 84 80 81 87 90 90 88 84 80
49 56 67 66 51 36 31 28 28 34 35 40 45 37 37 38 32 41 50 51 58 60 55 56 54 43 41 44 36 26 18 14 14 14 12 9 9 10 9 8 7 7 8 7 9 9 9 11 9 10 12 12 10 12 17 17 18 23 32 50 63 67 63 57 53 50 64 76 72 78 86 85 89 93 94 92 86 83 79 78 81 82 86 96 97 86
58 55 61 62 56 44 37 31 30 38 42 45 49 45 47 50 44 46 52 52 51 53 53 53 51 46 47 54 51 37 23 18 18 16 14 11 10 12 11 10 8 6 8 7 8 9 9 10 10 10 11 13 11 9 15 17 17 20 28 43 53 61 63 55 57 58 61 72 71 78 89 84 88 94 90 90 84 79 82 85 88 87 85 95 101 87
65 61 66 70 64 49 38 34 34 40 45 53 61 59 57 62 66 65 64 61 58 61 60 50 42 37 45 61 62 51 36 25 22 19 15 12 12 13 13 14 10 7 7 7 8 9 9 9 9 10 10 13 13 9 12 16 18 18 23 33 37 53 64 51 57 67 60 64 66 73 89 86 83 85 82 85 84 82 89 91 94 96 92 96 100 88
72 73 73 73 72 65 55 49 47 48 49 58 67 68 66 67 73 76 74 74 73 75 71 55 40 34 49 66 62 58 50 33 26 21 16 16 16 15 16 16 12 8 7 7 7 8 9 9 8 9 11 12 13 11 11 14 19 18 23 36 34 43 59 50 53 60 51 58 63 62 76 80 77 80 80 82 89 93 97 98 99 100 97 99 100 88
78 81 79 77 80 78 72 68 65 65 68 74 77 74 72 70 75 82 85 87 86 87 82 62 46 40 48 60 62 61 52 37 37 33 24 24 20 18 20 18 14 9 7 7 7 8 8 9 9 9 10 12 12 12 11 12 18 18 21 33 36 43 55 52 50 48 43 58 69 65 67 73 80 88 90 89 90 92 94 97 98 97 98 101 99 86
78 80 82 81 82 76 72 72 69 71 77 81 79 77 78 75 78 86 91 95 93 91 83 61 58 64 52 50 63 63 48 41 49 47 37 31 24 22 25 22 18 11 8 8 7 7 8 8 9 8 8 12 14 14 12 11 14 19 20 22 28 38 45 48 51 48 43 50 68 77 72 75 86 92 99 98 87 82 84 85 88 95 99 100 98 85
83 86 87 83 82 77 72 70 69 73 77 80 80 79 84 81 83 89 93 101 99 94 87 65 66 80 59 44 55 53 43 42 45 43 37 32 27 25 27 25 21 14 10 9 7 7 8 8 9 9 8 10 15 15 13 12 11 16 20 18 21 31 36 40 45 48 47 47 60 78 80 82 89 89 92 90 80 82 87 86 93 101 98 98 99 86
94 98 96 88 87 83 76 72 73 74 74 80 82 81 85 86 88 94 97 103 98 95 100 84 75 77 49 32 39 38 36 38 37 39 35 29 28 26 26 25 21 17 12 9 8 6 7 8 8 9 8 8 14 16 13 13 12 12 19 20 17 22 28 34 43 48 50 50 57 74 83 87 89 86 84 75 72 84 90 92 98 96 89 94 100 87
94 100 98 93 92 90 82 74 70 66 65 73 76 75 79 82 86 94 100 102 97 95 101 96 94 85 48 26 28 27 31 37 39 46 41 31 27 26 27 26 22 20 14 11 12 8 6 8 8 9 9 7 11 16 15 13 12 11 15 19 17 17 20 28 43 53 52 51 59 70 77 83 89 90 87 78 75 80 84 87 89 85 82 93 99 88
89 96 98 95 94 94 86 79 73 64 60 67 71 70 72 76 78 83 91 94 94 97 100 99 100 90 65 51 42 29 31 38 38 44 44 35 29 28 29 26 25 23 15 15 20 12 5 8 9 9 10 8 8 15 16 13 13 11 11 16 17 16 16 21 35 50 52 53 63 68 66 71 83 89 88 87 85 82 82 85 87 83 82 93 99 90
86 94 98 96 97 94 90 91 88 75 69 72 76 77 76 77 78 81 90 93 92 96 99 100 96 81 69 63 45 29 31 35 32 35 38 34 27 29 31 26 26 28 20 17 23 15 4 7 10 9 10 9 7 12 16 13 12 12 10 12 15 16 15 16 24 37 46 57 67 68 64 66 73 79 84 90 89 83 78 81 87 84 78 90 100 92
75 86 95 99 99 95 93 98 97 88 85 85 88 90 87 87 89 90 97 98 96 99 98 96 90 79 72 61 41 30 29 30 30 29 31 30 24 27 34 28 25 31 26 22 31 27 10 6 10 9 10 11 7 8 14 14 12 12 11 10 12 15 15 13 18 24 34 56 70 68 66 67 69 73 80 85 86 80 73 71 76 75 74 90 101 92
66 79 93 99 99 97 97 99 100 97 95 92 94 97 94 96 98 96 100 103 100 101 100 96 88 81 80 73 59 44 30 23 25 25 27 28 25 26 33 32 25 27 31 36 48 47 23 8 10 11 10 11 9 7 10 14 12 11 12 11 10 13 14 13 16 17 23 43 66 70 65 64 67 70 76 82 86 84 74 64 69 77 81 93 100 90
71 80 90 96 97 97 98 97 95 93 91 90 93 96 97 100 102 99 99 102 99 97 100 100 92 83 76 71 65 53 36 24 17 18 24 26 27 28 30 34 29 24 33 43 52 56 37 15 12 13 12 12 10 7 8 11 12 10 11 11 10 10 12 13 13 15 18 33 58 70 66 65 68 70 72 69 71 81 77 64 73 89 92 98 100 88
68 77 85 96 99 96 98 98 91 87 89 92 93 97 100 100 101 97 91 90 89 89 96 102 99 91 82 73 66 57 52 45 27 16 21 24 26 28 28 34 32 27 32 34 40 53 41 18 14 15 14 13 11 8 7 8 10 10 9 11 11 10 11 12 12 13 15 26 45 59 65 67 69 71 64 48 52 75 81 71 80 93 92 94 97 87
65 75 84 95 100 96 98 99 95 91 93 96 96 98 100 98 98 95 89 86 83 82 92 101 102 98 95 92 88 81 81 79 53 25 20 25 26 25 26 30 31 31 32 26 33 48 35 15 17 17 15 15 12 9 8 6 8 8 9 11 11 10 10 10 11 11 13 20 27 38 46 51 61 69 54 41 59 84 83 76 85 92 86 84 85 82
62 69 79 92 99 97 97 98 99 100 98 98 100 101 100 98 97 96 94 93 89 86 89 97 102 100 98 100 101 98 95 92 72 38 20 22 27 26 25 27 28 29 32 29 33 40 27 16 18 17 16 17 12 10 9 6 7 7 8 10 10 11 10 9 11 11 11 15 17 21 26 34 54 67 49 37 55 77 82 80 85 92 89 80 73 71
65 66 76 89 93 94 98 99 101 102 100 100 101 101 99 100 101 101 101 100 97 94 88 89 98 101 98 99 99 98 94 93 89 68 41 26 23 25 26 28 29 27 28 31 34 33 25 21 21 18 18 18 14 12 9 7 7 6 6 8 9 11 11 10 10 10 12 14 13 15 18 25 41 53 50 39 35 51 76 85 87 91 89 81 71 65
72 70 75 85 90 96 100 100 101 101 100 100 99 100 100 100 100 98 100 100 100 101 95 89 96 100 99 99 99 98 96 96 97 92 77 55 34 24 23 26 29 29 27 28 31 33 30 25 24 22 20 18 16 13 9 8 7 6 6 8 9 10 11 10 9 9 12 12 12 14 14 24 41 51 54 43 33 52 81 92 93 88 80 79 73 63
71 73 82 89 94 100 101 99 101 99 97 98 99 100 100 100 98 96 99 100 99 100 100 96 99 101 99 98 99 99 100 100 99 94 92 82 56 33 22 22 26 28 28 27 27 30 33 29 27 26 22 19 18 14 10 9 7 6 6 8 11 12 11 10 10 11 11 10 12 12 16 46 76 74 59 51 57 79 95 98 95 80 69 73 70 62
72 77 88 96 98 100 101 100 100 96 94 98 100 100 100 100 100 99 99 100 99 100 99 97 98 100 99 95 94 96 95 98 97 86 81 85 78 55 29 17 20 24 26 28 28 28 29 30 30 29 26 22 19 15 12 9 7 7 5 6 11 12 11 12 11 10 13 15 12 9 27 72 93 69 56 74 92 98 100 101 92 72 63 70 73 69
80 82 88 98 101 99 101 101 99 97 97 97 97 99 100 100 100 101 100 100 100 99 96 92 93 99 100 91 90 93 90 90 90 77 66 69 78 75 50 23 15 18 21 25 27 28 28 28 28 28 27 24 20 17 13 10 9 7 6 5 6 7 10 13 13 11 15 18 17 22 47 77 79 61 66 92 103 99 100 100 86 68 66 76 82 77
85 87 88 97 101 100 101 99 97 99 100 98 98 100 100 100 100 100 100 100 99 100 99 95 93 100 102 94 92 92 88 91 95 86 76 69 67 73 68 46 25 16 16 20 23 26 27 26 26 25 26 25 22 18 14 11 10 7 6 6 4 5 7 10 13 15 18 22 24 37 55 60 58 65 81 96 101 99 101 97 82 70 72 82 86 79
91 94 92 97 101 100 100 99 98 101 101 99 100 100 99 100 100 99 100 100 100 100 100 98 94 94 97 94 90 83 79 85 89 88 93 92 80 74 72 62 43 24 15 17 20 23 25 25 25 23 23 24 23 20 16 13 11 8 6 6 5 5 5 6 11 14 21 28 33 42 55 58 58 64 76 93 101 97 96 93 80 69 73 82 85 80
93 97 96 98 100 100 100 100 99 101 101 100 100 100 100 100 99 99 100 99 101 100 100 103 96 79 74 78 76 71 71 73 72 73 84 96 98 90 79 69 55 36 21 16 17 21 23 24 25 23 22 22 22 21 18 15 13 9 7 6 5 6 6 5 8 11 16 25 36 47 58 71 80 74 71 90 102 94 92 91 78 68 76 84 81 75
89 97 99 99 100 100 100 100 100 101 101 100 100 99 100 100 99 101 101 99 101 98 93 96 89 68 61 68 69 71 76 78 77 77 81 91 100 102 95 83 67 47 30 20 17 18 20 23 25 24 22 22 22 21 20 18 16 11 7 6 6 6 6 6 6 9 12 15 26 44 58 77 96 86 68 82 101 97 90 87 77 72 82 88 82 73
80 89 96 99 100 100 100 100 100 101 101 101 101 100 100 100 99 99 100 99 100 95 82 73 65 59 65 70 71 79 87 92 97 95 92 95 96 96 99 98 86 65 42 26 19 18 18 20 24 25 23 23 22 21 21 20 19 14 8 6 6 5 6 7 6 7 11 11 15 29 48 75 102 94 72 80 100 96 83 78 76 75 83 89 84 76
69 79 90 98 100 99 100 100 99 101 102 99 99 100 100 100 101 101 101 100 101 100 90 77 63 60 71 75 73 81 91 98 102 100 99 97 86 77 83 96 100 86 60 37 23 19 19 19 22 25 25 24 23 21 21 22 20 15 10 6 5 6 6 7 8 7 8 11 16 21 37 72 103 97 78 83 98 92 77 74 78 79 80 82 79 77
61 73 84 96 101 100 100 100 99 101 99 95 97 102 100 97 98 98 96 94 97 100 99 97 89 80 82 85 83 85 92 97 98 98 96 86 74 67 70 86 103 101 81 55 32 21 20 19 20 24 25 25 25 23 22 22 20 17 12 7 5 6 6 6 7 8 7 10 15 19 33 70 101 96 84 89 93 84 76 80 86 88 85 79 75 76
50 62 75 89 97 99 100 100 99 101 100 91 87 88 89 91 91 91 91 92 97 97 91 94 95 88 85 91 93 93 90 88 94 98 81 60 61 75 77 79 94 103 97 77 48 27 22 20 19 21 25 27 26 24 25 24 22 19 13 9 7 6 6 6 5 7 8 9 13 15 30 66 96 98 94 94 86 79 82 87 88 88 87 83 81 81
36 45 58 74 85 90 96 100 99 101 100 91 81 79 85 93 93 93 95 96 100 99 91 90 96 96 93 88 83 83 81 82 93 89 56 25 33 64 77 71 71 85 98 94 69 41 25 20 21 20 21 26 26 25 26 25 24 22 15 10 9 7 6 6 6 7 8 8 12 15 26 59 91 100 96 90 81 80 83 82 80 84 89 93 95 89
28 31 40 55 69 76 87 99 101 100 99 96 93 93 95 94 92 92 93 93 95 98 97 98 99 99 96 84 75 78 84 87 84 62 29 7 7 26 44 45 45 64 91 102 88 62 36 22 21 22 21 23 26 27 28 26 26 26 21 16 12 10 8 7 6 8 8 9 13 16 27 59 92 101 96 89 83 80 79 81 86 90 93 97 96 86
22 24 29 40 52 61 72 89 100 100 99 100 100 100 100 97 96 99 100 95 91 91 96 102 98 91 88 83 81 84 78 64 46 24 10 7 6 9 15 17 29 55 82 99 99 80 54 30 20 22 23 22 24 27 28 27 27 27 26 22 16 13 13 11 9 10 10 12 14 17 36 71 97 100 99 96 87 80 83 91 93 89 86 86 85 80
16 20 23 28 38 47 57 76 96 102 100 101 99 92 90 89 89 95 98 91 87 92 98 102 100 93 88 82 82 81 61 32 15 8 6 4 8 21 29 31 44 60 71 87 98 91 73 46 23 20 24 22 23 26 28 28 28 27 28 26 21 18 17 14 14 14 14 15 16 21 48 86 103 100 102 101 87 79 89 98 92 82 81 84 86 81
14 16 20 21 26 35 44 64 90 102 99 97 92 82 81 84 85 92 96 88 89 99 102 100 100 98 93 87 87 85 62 27 7 7 8 2 8 37 62 67 69 69 65 75 91 96 90 67 34 20 22 24 23 25 27 29 29 27 28 28 25 23 20 16 16 18 18 18 18 24 52 88 103 101 103 101 87 83 94 99 88 78 79 85 86 76
13 14 16 16 19 27 38 53 75 92 96 97 95 92 95 98 96 99 100 94 96 100 95 95 100 99 97 91 88 88 73 38 11 5 7 4 5 34 70 84 81 75 68 70 86 100 101 83 50 25 21 23 25 26 27 28 29 27 27 28 27 26 22 17 15 18 19 18 19 24 41 69 88 96 100 97 88 86 87 82 74 74 79 83 82 72
16 15 15 16 19 25 32 42 62 83 93 96 100 100 100 100 100 100 99 100 101 91 82 88 97 98 99 95 85 80 68 39 13 4 6 6 5 26 67 88 83 73 68 74 89 101 102 88 60 33 21 21 25 26 27 28 28 27 26 27 28 27 25 20 16 17 18 18 19 22 30 45 63 81 92 94 93 90 80 68 66 72 75 74 76 75
33 29 24 24 27 29 28 34 53 75 88 94 100 100 100 102 101 92 87 94 100 88 76 86 97 98 101 101 90 74 53 30 13 5 6 7 6 24 60 81 78 70 70 79 92 99 99 90 67 41 25 21 23 26 27 26 27 26 26 26 27 27 27 24 20 18 19 18 17 21 26 33 44 63 81 88 92 93 87 78 73 70 66 63 63 67
50 44 37 33 33 33 31 34 48 65 79 90 97 99 101 101 95 88 88 96 101 93 84 91 101 100 97 100 98 79 50 29 17 8 6 7 6 15 37 56 67 71 69 72 82 92 97 90 69 46 30 21 21 25 26 25 26 26 26 26 26 26 26 26 25 23 21 19 18 18 23 27 34 51 69 78 83 87 90 90 83 72 68 60 49 46
42 43 43 36 31 33 35 40 49 60 71 85 93 96 95 90 88 94 99 100 100 98 97 99 102 102 98 99 102 89 60 35 20 9 7 8 7 9 17 28 48 68 73 72 77 84 86 76 58 42 30 21 22 25 24 24 26 28 28 26 24 25 24 24 25 25 23 21 17 16 19 22 28 43 60 70 74 75 79 86 86 81 77 63 42 31
26 33 38 31 26 30 33 35 40 47 60 74 79 82 86 86 90 99 101 99 100 99 99 101 101 101 100 99 101 97 79 59 39 17 7 8 8 8 11 14 27 49 65 72 72 67 60 50 40 34 26 21 22 24 23 26 30 30 29 26 23 22 22 22 23 24 23 22 18 14 15 16 21 36 53 61 63 64 66 70 74 78 74 58 37 23
17 23 29 26 23 24 25 28 32 35 48 64 67 71 84 91 96 101 99 99 101 97 95 100 102 101 101 99 100 99 91 81 63 30 8 7 9 8 10 12 14 22 34 44 45 39 32 28 26 26 23 21 23 24 25 30 33 31 28 25 23 21 20 20 21 21 21 22 20 16 14 12 15 29 45 51 51 52 54 54 57 62 58 44 28 17
10 14 21 25 26 25 23 26 29 29 36 51 58 68 86 96 98 100 99 100 101 97 95 98 100 101 101 99 100 99 92 88 80 49 16 7 8 8 8 11 11 12 14 18 20 20 20 21 21 21 21 21 23 26 30 33 32 30 27 25 23 21 20 20 20 20 20 20 19 18 16 12 11 18 33 44 43 40 40 41 43 44 42 34 25 19
6 9 14 19 25 31 29 27 30 28 30 40 48 56 75 92 97 96 97 100 101 98 97 99 100 101 101 99 100 100 96 94 90 70 37 15 8 8 9 9 10 11 11 11 13 14 16 17 17 18 20 23 26 29 33 32 29 27 26 24 22 22 21 19 19 19 19 18 18 18 17 15 12 12 21 34 39 35 32 32 32 32 33 30 25 22
4 6 9 11 19 31 39 42 42 36 31 38 46 48 60 80 92 92 92 96 100 99 99 101 101 98 98 101 101 99 98 100 98 89 69 40 14 6 8 9 10 11 11 12 13 13 14 15 16 17 20 23 28 31 31 29 27 25 24 23 22 21 20 19 19 18 18 18 17 17 16 15 13 10 12 21 30 31 28 25 24 25 24 23 21 20
5 4 6 7 11 19 32 46 50 44 38 43 46 43 46 62 80 89 89 91 97 100 100 100 100 96 93 97 102 101 98 98 97 97 92 67 34 15 10 8 8 10 10 11 12 12 13 15 16 19 22 24 27 29 28 26 25 23 22 21 20 20 19 19 18 17 17 17 17 16 16 15 14 11 10 13 18 23 24 21 19 18 17 18 18 14
7 6 4 5 6 8 17 30 41 47 53 56 53 46 41 47 63 78 85 89 94 98 100 100 101 98 92 90 94 99 101 99 96 98 100 89 67 44 23 10 8 9 9 10 11 12 14 15 15 18 21 23 25 26 26 25 22 20 19 19 18 18 18 18 17 17 16 16 16 16 15 14 13 13 10 8 9 14 17 15 14 14 13 12 10 6
8 8 6 5 5 5 6 12 19 29 42 51 53 48 40 39 49 61 71 82 88 90 95 100 101 99 98 94 91 93 97 99 98 97 98 99 95 79 52 28 15 10 8 8 10 10 11 13 15 16 18 20 22 22 22 22 19 17 16 15 16 16 17 17 16 16 15 14 15 15 15 14 13 11 9 6 6 7 9 9 9 8 7 7 6 6
10 10 9 7 7 5 5 5 5 9 17 28 40 45 40 36 41 46 53 67 78 82 88 96 100 100 100 99 98 94 90 90 95 97 97 97 99 97 83 60 40 26 15 9 9 10 9 10 11 12 14 15 16 18 18 17 16 15 14 14 15 15 16 15 15 14 14 14 13 13 12 11 10 10 9 7 4 5 6 6 5 5 4 5 5 4
Wind_Speed
16 15 14 14 13 13 15 16 17 18 20 21 22 23 24 25 26 28 31 32 35 37 37 38 38 38 40 41 43 42 39 37 37 37 36 36 37 40 44 48 51 56 62 65 66 68 68 66 66 66 66 66 66 66 66 65 63 61 59 60 61 62 60 57 56 54 50 49 48 43 39 36 38 39 40 40 40 39 35 33 32 31 30 29 26 22
17 16 15 14 14 13 13 15 15 15 16 16 18 19 20 22 24 26 29 31 34 38 38 39 40 39 41 44 45 44 42 38 37 38 37 37 37 38 41 45 49 53 59 64 66 67 68 68 67 68 68 67 67 66 67 66 65 63 61 61 62 64 61 56 54 52 50 49 47 44 41 39 39 40 41 41 40 39 36 33 32 33 32 29 26 23
17 15 15 16 15 15 14 15 15 14 14 14 16 18 18 20 23 24 26 29 32 35 36 39 43 42 41 45 46 46 44 41 40 40 39 39 39 39 40 42 48 52 56 62 65 66 68 68 68 69 70 69 68 67 67 67 66 66 63 62 63 64 61 57 54 51 50 50 48 46 43 41 41 42 43 42 40 39 37 34 34 33 32 31 27 23
16 16 17 17 17 16 16 16 16 14 14 15 17 19 19 20 22 23 24 28 30 32 34 36 41 43 40 42 44 46 45 43 42 42 42 41 41 40 40 41 46 51 55 59 63 65 67 68 69 70 71 71 70 69 68 68 68 66 65 63 63 63 62 58 55 52 51 51 51 49 45 43 44 44 44 43 41 40 39 38 36 33 33 33 30 25
16 17 18 18 17 17 17 18 18 16 14 16 19 21 22 21 22 23 24 29 29 31 33 32 37 41 39 40 42 43 45 43 42 43 42 41 41 40 41 42 45 50 55 58 62 65 67 68 69 70 72 72 72 70 68 68 68 67 67 65 63 63 62 59 56 54 53 54 56 54 50 48 49 48 47 46 43 42 42 40 36 34 36 35 32 27
17 18 18 17 17 17 17 18 19 19 18 19 21 22 22 20 21 23 24 27 27 28 29 28 31 33 33 38 40 40 41 41 41 43 42 41 41 41 41 42 44 49 54 57 60 64 67 68 69 70 72 73 73 72 70 68 69 69 68 67 65 64 63 60 58 57 56 58 59 57 55 53 51 49 47 45 43 43 42 39 37 38 39 38 34 29
17 18 18 17 17 17 16 16 17 18 18 19 20 20 21 21 21 21 21 23 24 25 26 23 24 27 26 32 36 37 38 38 39 41 41 41 41 41 40 41 43 47 53 56 59 63 67 68 69 70 72 74 74 74 72 69 69 70 69 69 67 65 63 61 60 59 59 61 61 59 57 54 50 47 45 43 42 42 41 39 40 41 42 41 37 32
19 18 18 16 17 18 17 17 16 15 15 16 17 18 20 21 20 20 21 21 23 22 20 18 19 23 23 24 30 34 35 36 37 38 39 40 40 40 39 39 41 45 50 56 58 62 67 69 69 69 71 73 74 75 74 71 70 70 70 70 69 67 64 62 62 61 61 62 62 60 57 54 52 49 46 43 42 42 42 41 39 40 43 43 39 33
19 18 19 18 18 21 21 20 19 16 15 15 16 16 17 19 19 21 21 21 22 20 15 13 15 20 21 16 23 31 33 32 32 35 37 38 39 39 38 39 40 42 47 54 58 61 65 69 69 68 70 73 74 75 75 73 70 69 70 70 70 68 66 63 63 63 62 62 63 62 58 54 52 51 48 45 44 45 44 41 39 39 40 41 40 34
22 22 24 22 20 21 22 22 20 18 16 15 15 15 15 16 17 19 20 20 21 19 13 12 14 18 18 11 13 25 30 29 29 33 36 37 38 38 37 38 39 40 44 50 56 60 64 68 69 68 69 72 74 75 75 75 72 70 70 71 70 69 67 65 64 64 63 63 62 61 58 55 54 53 50 48 47 47 46 43 40 38 36 38 40 35
26 25 27 26 23 21 19 19 18 17 17 16 15 15 14 14 15 15 17 19 20 17 14 13 14 15 10 4 7 19 28 31 31 32 34 35 36 36 36 37 39 40 42 47 52 57 62 66 68 68 68 71 73 75 75 76 74 71 70 71 70 69 68 66 66 65 64 63 61 57 55 54 55 55 53 50 49 48 46 44 42 38 35 39 42 36
28 26 27 26 25 22 18 17 17 17 17 17 17 17 16 15 15 14 14 17 17 15 15 14 15 15 9 6 10 16 23 29 31 31 32 33 33 33 33 35 38 40 41 45 50 55 61 64 67 68 67 69 72 74 75 76 75 73 70 71 71 69 68 68 67 66 64 63 61 58 55 54 55 56 54 52 50 49 47 45 42 39 37 41 44 37
28 27 27 26 25 23 21 20 20 18 18 19 19 20 20 20 20 19 18 19 17 14 14 13 14 13 9 11 15 16 19 25 29 30 31 32 32 31 31 32 36 39 41 44 47 52 58 61 64 67 66 67 70 73 75 76 75 74 71 70 71 70 69 68 67 66 64 63 62 60 58 57 56 56 55 54 52 51 49 46 43 41 38 41 44 38
30 30 29 26 24 26 26 25 23 21 22 22 22 22 21 21 23 23 22 23 21 17 14 12 11 12 11 13 17 19 23 26 28 28 29 31 32 30 29 30 34 39 40 43 44 47 54 59 61 65 65 65 67 71 74 75 75 75 73 71 70 70 69 69 68 66 64 63 62 61 61 61 59 56 56 57 56 54 52 48 44 42 38 39 42 39
35 35 32 27 25 26 27 27 24 23 24 24 23 21 20 20 22 24 23 23 23 17 13 13 11 12 13 15 18 22 25 26 27 28 27 29 30 29 27 28 32 37 39 41 41 41 48 55 58 62 64 63 65 69 72 75 75 75 74 72 70 70 70 69 68 67 65 63 62 64 64 63 59 56 55 54 54 53 52 47 43 41 40 41 42 40
33 35 33 28 25 25 27 28 26 25 25 25 24 22 20 21 23 25 24 23 24 19 13 12 12 14 15 17 20 22 24 25 27 30 29 29 29 28 27 27 29 34 39 41 39 37 43 50 54 59 61 62 64 67 69 73 75 75 74 72 70 69 69 68 68 67 67 65 64 66 66 62 59 57 56 51 49 51 51 46 41 38 40 42 42 40
32 34 33 27 23 24 26 27 29 30 29 28 26 24 23 23 24 27 27 24 25 21 15 11 9 11 13 16 19 21 22 24 26 29 30 29 29 26 25 27 28 31 36 41 39 36 41 48 51 55 59 60 62 65 68 71 74 74 73 72 71 70 69 68 68 68 68 67 66 66 65 63 61 59 56 52 49 51 50 46 41 34 32 37 40 38
30 32 31 26 22 23 25 25 28 31 30 28 27 26 25 25 26 29 28 26 25 22 18 14 11 11 11 13 17 19 19 20 22 26 28 28 28 25 23 25 28 29 33 38 39 37 41 47 49 52 56 59 61 63 66 69 72 73 73 72 72 71 69 68 67 68 68 68 68 67 65 65 64 60 57 52 50 51 50 46 43 37 33 35 36 36
28 32 32 27 22 22 24 24 26 29 30 28 27 27 27 27 28 28 27 26 25 24 20 15 13 16 12 10 14 17 17 16 17 23 28 29 28 25 23 24 27 28 31 35 37 38 42 46 48 51 55 57 60 62 64 67 70 72 73 72 72 71 69 68 68 68 69 69 68 67 66 66 64 61 59 54 51 52 52 48 45 41 37 36 36 36
28 32 32 29 25 23 23 24 26 29 29 28 27 26 26 27 27 26 24 25 25 25 24 17 14 15 12 10 13 15 16 15 15 18 23 28 30 27 24 23 25 27 29 32 34 37 42 45 47 50 53 56 58 61 63 66 69 71 72 72 72 72 70 69 69 69 69 70 68 66 67 67 64 64 62 57 52 53 54 52 48 43 37 36 37 38
26 30 32 29 25 22 21 24 27 27 26 27 26 25 25 26 26 24 24 24 23 22 24 22 17 15 12 11 13 14 14 15 17 18 20 23 28 30 27 25 26 27 28 31 34 37 41 44 46 49 52 55 57 60 62 64 67 70 71 71 72 72 72 71 71 70 70 69 67 66 65 63 64 67 64 57 53 54 55 54 49 44 39 38 40 40
24 29 31 29 24 21 20 22 24 25 25 24 23 23 25 26 25 25 25 24 21 20 21 22 18 12 12 14 16 16 15 15 16 17 17 19 24 29 30 28 28 28 29 31 34 38 42 45 46 48 51 54 56 58 61 63 65 69 71 72 72 72 72 72 71 70 68 67 66 64 60 57 60 64 61 55 53 55 56 55 50 45 43 42 42 41
23 26 29 28 23 18 17 19 22 25 25 23 21 22 25 26 24 24 25 21 18 18 20 21 17 11 13 18 18 18 17 17 17 15 14 17 21 26 30 30 29 30 31 32 35 38 42 46 48 49 51 53 55 57 59 61 63 66 70 71 72 72 72 72 71 68 64 63 64 62 57 55 55 55 53 52 53 55 55 53 49 46 44 44 44 42
19 21 24 25 20 16 16 18 22 25 25 24 22 21 23 25 25 24 24 22 19 18 20 21 18 14 14 17 17 17 17 16 16 15 14 14 17 21 26 29 30 31 32 34 36 39 43 46 49 51 52 53 55 56 58 59 60 64 68 70 71 72 71 70 70 67 63 62 62 60 58 57 54 50 49 51 54 55 53 51 49 47 46 45 45 42
19 19 21 21 18 16 16 18 20 22 25 27 25 23 22 25 26 25 25 23 20 18 19 19 18 16 16 18 17 16 17 16 15 15 14 14 15 17 22 27 30 32 33 35 38 41 44 46 50 52 53 54 55 56 57 58 58 61 66 69 71 71 71 70 69 66 63 62 61 60 58 57 54 50 50 52 55 54 52 51 50 49 47 46 45 42
20 19 20 21 20 20 20 20 19 20 25 29 28 25 25 27 29 30 28 25 20 17 15 16 19 20 19 18 18 17 17 16 15 14 14 14 15 16 20 25 29 32 35 37 39 43 46 47 50 53 55 55 55 55 56 57 57 59 63 67 69 70 71 70 68 66 64 63 61 59 58 56 54 53 52 54 55 54 54 54 52 50 48 46 45 44
19 18 18 19 21 22 21 20 19 19 23 27 28 28 28 29 32 32 29 25 20 17 15 16 21 23 22 19 18 17 16 14 14 14 13 13 15 16 19 24 28 32 36 39 41 44 47 49 51 53 55 56 56 56 56 56 55 57 62 66 68 69 70 69 67 66 66 66 60 55 56 57 55 56 55 55 56 56 56 56 52 50 49 47 46 45
19 17 15 16 19 22 22 20 18 18 20 23 26 29 29 29 31 32 30 25 20 20 20 18 21 24 22 20 18 14 12 13 15 16 15 15 16 17 19 24 29 33 36 40 43 45 48 50 52 53 55 57 57 57 57 56 55 55 59 65 67 69 69 67 66 66 67 68 63 55 54 56 57 58 58 57 58 58 58 56 53 52 50 47 46 46
19 16 14 14 17 21 23 22 19 17 17 19 24 27 29 29 30 32 32 28 23 23 24 23 25 27 25 22 20 16 14 17 19 19 18 18 18 19 21 24 30 34 38 41 44 46 47 50 53 54 55 57 57 58 57 56 55 54 57 63 67 68 68 66 66 66 67 68 65 60 56 55 57 60 60 60 60 59 57 56 54 53 50 48 48 48
19 18 14 13 15 20 23 24 22 18 16 16 19 23 27 29 29 30 31 31 30 27 26 26 25 25 25 25 25 22 20 23 23 21 20 20 20 20 21 24 29 35 40 42 45 48 48 49 52 54 55 56 57 58 58 57 55 54 56 61 66 68 68 66 66 67 68 67 64 62 60 57 59 64 64 63 62 59 56 56 54 52 51 49 48 47
17 18 17 16 16 18 21 23 24 21 15 14 16 19 23 25 27 26 25 27 32 33 31 30 28 24 21 21 23 23 23 24 24 22 21 20 20 18 17 21 27 33 40 43 44 48 51 50 51 54 55 55 55 56 57 56 55 54 55 59 63 66 67 66 66 68 68 66 64 63 62 57 59 66 68 64 61 58 56 55 53 52 51 48 47 45
15 16 18 18 18 18 20 22 25 24 18 12 11 14 20 25 26 26 24 25 31 36 36 36 39 37 27 19 19 20 23 23 21 22 24 24 21 16 11 13 19 27 37 43 45 48 52 53 52 52 54 54 54 55 55 54 54 53 54 58 61 63 65 65 66 67 67 66 65 64 62 57 58 66 68 62 58 56 54 54 52 52 52 49 46 45
13 15 17 18 18 20 21 22 24 24 20 15 13 15 21 25 26 25 24 24 28 35 37 40 46 43 31 22 19 19 22 23 21 24 29 29 24 17 13 13 15 20 30 40 46 48 51 54 54 52 53 54 54 54 54 53 53 52 53 56 59 61 62 63 64 65 65 65 64 64 62 57 57 64 65 60 56 53 51 51 52 52 52 49 48 46
13 14 16 18 18 19 21 23 24 23 22 19 18 20 24 26 27 27 26 25 28 34 38 42 44 37 27 25 26 25 27 27 27 29 31 30 26 21 19 18 17 20 27 37 46 50 50 53 56 54 53 53 53 53 53 53 54 53 53 55 58 59 60 62 62 62 63 64 63 62 60 56 57 64 66 61 55 50 49 50 50 50 48 48 48 46
14 15 16 17 18 18 20 22 21 20 21 19 18 20 23 24 24 25 25 26 30 34 36 40 39 30 26 30 31 30 32 33 33 35 34 31 27 20 18 19 19 22 27 33 42 51 52 53 56 57 54 53 52 52 52 53 54 55 54 54 56 56 57 59 59 60 61 62 61 60 58 56 59 66 66 60 53 50 51 51 48 45 43 43 44 43
13 14 15 16 17 18 19 21 20 19 19 19 14 12 16 19 20 21 24 27 31 33 35 39 37 27 27 34 34 33 35 36 36 37 37 34 26 17 13 16 18 22 27 31 37 48 54 53 55 58 56 54 52 51 51 53 54 54 54 54 54 54 55 57 57 58 59 59 58 58 57 56 60 64 62 55 51 51 52 50 45 41 40 40 41 42
12 13 14 14 16 18 20 22 21 18 16 17 14 11 15 23 26 27 28 28 30 32 34 38 36 28 28 34 34 33 35 34 33 35 36 32 23 13 9 10 13 20 28 32 35 44 53 54 53 57 58 55 53 51 51 51 53 54 54 54 53 52 53 55 56 56 57 56 56 56 55 55 57 59 57 53 50 51 52 49 44 42 41 42 43 43
10 11 13 14 17 20 22 21 19 16 14 16 20 21 21 26 30 28 25 24 28 31 34 38 39 31 28 32 33 32 34 35 35 36 35 30 19 8 4 4 7 14 25 33 37 43 51 55 54 55 59 57 53 51 50 50 51 53 54 53 51 50 50 52 54 55 55 55 55 55 54 54 53 52 52 52 51 51 51 49 45 44 44 45 46 46
12 11 13 15 18 20 21 21 18 17 16 16 22 24 22 24 26 24 21 24 29 32 34 37 39 33 28 31 36 35 35 37 39 38 37 33 21 5 2 4 3 9 19 29 36 41 50 56 55 53 57 59 55 52 50 50 50 51 52 51 50 48 47 48 50 53 53 54 55 55 54 54 52 50 51 52 53 53 52 50 47 47 47 48 49 49
16 16 15 16 18 19 21 21 18 17 18 17 20 23 24 25 23 21 24 30 33 35 35 35 36 35 30 30 34 37 37 38 40 40 40 39 27 9 6 7 7 9 16 24 32 39 48 53 51 50 54 58 56 53 51 49 49 49 49 49 49 47 45 44 46 49 52 54 56 56 55 55 54 52 52 54 55 54 52 51 50 49 49 50 50 50
14 15 16 15 15 15 17 20 18 17 19 19 18 21 23 22 21 24 32 37 36 35 35 33 33 36 35 30 29 34 37 37 37 38 38 39 33 18 11 12 12 11 14 20 28 35 43 48 46 45 51 56 56 53 51 49 48 47 46 46 46 45 44 43 44 46 49 52 55 57 57 57 56 55 54 55 56 56 54 52 50 50 50 51 51 49
10 12 12 12 12 11 13 16 16 16 18 19 18 20 22 21 24 31 35 34 32 31 31 32 32 35 37 32 25 28 33 34 33 33 33 35 35 28 19 18 16 14 16 22 28 34 40 43 41 42 49 54 54 52 50 48 45 43 42 42 42 43 43 43 43 44 46 50 54 57 59 59 58 58 57 57 58 58 57 53 51 50 50 51 51 49
9 10 9 8 8 7 8 9 10 11 14 17 18 20 22 25 29 32 30 27 27 26 26 29 31 32 36 34 24 23 29 33 33 32 30 30 32 30 25 21 19 18 21 26 32 37 42 42 42 44 49 52 52 50 47 43 40 38 38 38 39 41 42 42 42 42 43 46 50 55 58 59 60 61 60 59 59 59 58 55 52 51 51 50 50 49
9 10 10 8 6 5 7 8 10 14 19 22 23 24 27 28 28 28 28 26 26 24 24 27 28 30 34 34 29 25 26 30 32 30 26 25 27 28 26 23 22 23 25 30 33 37 41 43 43 45 47 48 48 46 42 38 35 35 35 36 37 39 40 41 41 41 41 42 44 48 53 57 61 63 63 62 61 60 60 57 54 52 50 50 51 50
13 12 13 13 11 8 8 9 13 18 22 24 26 27 28 29 27 26 27 27 26 24 24 25 26 27 29 30 29 25 21 21 27 28 23 22 23 24 25 24 25 28 31 35 39 40 41 42 42 43 44 44 43 40 37 34 33 32 33 34 35 37 38 39 40 40 40 41 41 43 46 52 58 62 65 65 63 62 61 58 55 53 51 51 52 51
20 17 16 17 15 13 10 10 14 19 21 23 26 27 28 28 27 25 25 26 25 24 23 24 25 26 26 26 27 25 19 14 19 24 23 21 19 19 21 22 24 27 30 34 38 39 39 39 39 40 40 39 38 36 34 33 32 32 32 33 34 35 37 38 39 40 41 41 41 42 43 47 52 58 64 66 65 63 62 60 57 55 54 53 52 51
24 22 19 18 18 17 15 15 16 19 20 21 23 25 26 27 27 26 25 25 26 24 22 22 22 23 24 24 26 28 23 14 14 19 21 21 18 16 17 19 20 23 25 27 29 32 34 35 35 35 35 35 35 35 33 32 32 33 33 34 35 36 37 38 39 40 41 42 42 42 42 43 47 52 58 63 66 66 63 61 59 58 57 54 51 51
25 24 22 20 18 17 17 17 18 20 21 21 22 22 23 23 24 25 25 26 27 26 23 21 20 21 22 22 23 26 26 19 14 15 18 19 18 15 14 15 16 17 20 22 23 25 27 29 31 32 33 33 33 33 33 33 33 34 34 34 35 36 37 38 39 40 42 43 43 43 42 42 44 47 51 57 63 65 63 61 59 56 54 52 51 53
23 23 22 22 20 18 16 15 16 18 19 19 20 20 20 21 22 23 24 25 26 27 25 22 20 19 20 22 21 21 23 22 17 12 13 16 17 15 14 13 13 14 15 17 20 21 23 25 27 30 31 32 33 33 33 33 33 33 34 34 35 35 37 38 40 41 42 42 43 43 43 42 43 45 47 51 57 62 63 62 58 54 53 53 54 55
21 21 21 22 21 20 16 13 12 13 13 15 16 16 17 18 19 20 22 23 24 24 24 23 21 18 19 21 21 19 20 21 18 14 11 11 12 13 14 14 12 12 13 14 16 19 20 21 23 26 28 30 31 32 33 34 34 34 33 33 33 34 37 39 40 41 41 42 43 44 43 43 43 44 45 49 56 61 61 58 55 55 55 55 54 54
19 20 21 21 21 21 20 17 15 13 13 14 15 15 15 15 16 17 18 20 22 22 23 22 20 18 17 18 19 19 18 16 16 17 13 8 7 8 9 12 13 13 13 13 14 16 18 19 19 21 24 27 29 31 32 33 33 33 32 32 33 34 36 37 38 39 41 42 43 43 44 44 44 44 46 51 55 57 55 53 53 54 54 52 50 50
Wind_Direction
341 345 344 339 330 314 301 293 286 280 277 275 275 274 274 272 269 269 268 267 268 266 261 259 255 249 248 248 247 245 242 241 242 242 244 245 245 243 240 236 232 230 228 227 225 223 220 216 214 213 211 212 213 213 214 214 213 211 210 209 208 210 213 215 215 215 212 211 213 213 208 207 211 214 215 218 221 219 213 210 213 217 218 219 218 213
336 341 337 331 325 317 308 300 297 293 289 286 282 280 279 278 276 272 269 268 269 268 263 262 259 253 251 250 249 248 244 242 242 243 244 244 245 246 242 237 232 229 228 226 224 223 220 217 214 213 211 211 212 213 213 213 212 211 210 209 209 212 213 215 217 216 214 213 213 214 211 208 211 215 217 220 224 224 219 214 216 221 223 225 223 215
328 330 322 318 314 311 307 304 305 304 302 297 291 288 285 282 279 276 276 274 274 274 271 267 262 255 252 250 248 249 246 243 243 243 244 244 244 246 245 240 233 228 227 226 224 222 220 218 214 212 211 210 210 212 212 212 212 211 210 209 210 212 213 216 218 217 216 214 213 214 212 208 211 215 218 221 225 227 225 220 218 222 225 226 224 216
323 321 318 315 311 304 299 299 301 300 300 296 292 292 290 288 287 286 286 282 281 283 284 279 268 256 251 248 245 246 246 244 245 245 244 245 246 247 247 243 235 228 226 225 223 221 219 218 215 211 211 210 209 210 211 212 212 212 211 209 210 212 212 214 216 216 216 214 211 212 213 210 211 214 217 219 221 225 226 223 220 223 227 227 224 217
327 323 321 318 310 301 295 293 294 293 294 294 291 290 290 290 290 289 288 285 285 289 291 289 276 260 250 248 244 242 244 243 244 246 245 246 247 247 246 245 239 229 224 224 222 220 218 217 216 211 210 210 210 209 210 211 212 212 211 211 211 212 213 212 213 214 216 215 211 210 211 210 211 212 213 214 217 221 224 224 223 225 229 229 224 217
335 328 327 325 317 308 301 293 290 291 291 290 287 287 291 292 290 290 289 287 288 293 298 298 286 269 253 249 246 242 242 242 242 244 245 246 247 245 244 246 243 232 224 222 222 220 217 216 216 212 209 210 210 208 208 210 211 211 211 211 211 211 212 212 211 212 217 217 211 209 210 210 211 211 211 211 214 219 223 225 226 227 230 228 222 215
340 334 333 332 325 318 312 304 298 296 294 290 288 289 292 293 292 293 294 292 293 298 305 310 297 280 262 251 250 247 240 239 242 243 245 247 246 243 243 246 245 237 226 221 221 220 217 215 215 213 209 208 210 208 207 208 210 210 210 211 211 211 211 213 212 212 216 216 209 208 211 211 212 212 212 212 213 219 222 224 228 230 231 227 220 215
341 337 335 331 325 323 319 313 309 304 300 296 295 294 293 294 296 298 299 299 300 303 314 325 309 289 272 250 248 250 241 238 244 247 247 246 244 241 241 244 245 240 229 220 219 220 217 214 214 213 210 208 209 210 207 206 208 209 210 210 211 211 211 212 213 214 217 216 209 208 211 211 212 212 211 212 215 220 222 223 228 232 234 229 220 215
342 336 333 327 324 327 325 320 318 313 307 304 305 304 299 298 299 299 302 303 302 306 319 325 305 294 295 272 246 246 245 245 247 248 246 243 241 241 239 240 242 239 230 221 218 219 217 213 212 213 211 208 208 210 209 206 206 208 209 210 210 211 210 210 213 214 216 217 213 210 210 211 213 212 211 213 216 220 223 224 226 231 236 231 220 213
347 338 336 332 327 328 326 324 324 321 319 317 315 314 309 306 303 302 306 306 303 306 310 304 291 295 314 317 252 241 242 242 242 243 244 243 241 240 238 238 238 234 228 221 217 218 218 213 210 211 212 208 207 210 210 207 205 206 208 210 210 210 210 210 212 214 216 218 216 214 213 212 214 212 210 213 217 220 222 224 225 229 233 225 215 210
350 341 337 335 332 332 330 329 331 329 328 326 320 318 316 314 309 307 309 306 303 309 308 300 295 294 308 327 237 231 230 231 231 236 241 242 240 238 239 239 234 228 223 219 216 217 217 214 210 210 211 209 207 208 211 209 206 205 207 210 210 210 210 210 212 214 216 218 218 217 216 216 218 214 210 213 219 222 223 224 225 228 228 218 211 207
355 347 341 338 336 337 337 339 341 336 332 333 328 322 321 322 318 318 318 309 305 309 307 301 294 290 289 268 239 224 227 232 232 234 239 241 239 235 239 240 233 225 219 215 214 215 216 214 210 209 210 210 207 207 210 210 207 204 206 209 210 210 210 210 212 213 215 218 218 218 218 219 220 218 213 213 218 222 224 225 226 228 227 220 211 205
359 354 348 343 340 339 338 340 342 339 336 336 333 327 327 328 328 331 332 326 325 322 310 299 282 273 267 256 245 232 234 238 236 236 237 239 238 234 237 239 232 224 216 212 213 213 214 213 211 209 209 209 208 207 209 211 208 205 204 207 209 210 210 211 212 213 216 217 216 218 220 220 220 219 217 215 218 222 224 224 226 228 230 226 214 205
4 1 355 350 344 340 339 338 339 340 338 336 333 332 332 329 327 333 335 332 334 334 316 301 279 263 254 246 245 241 240 239 236 237 237 236 237 234 234 236 230 223 214 209 211 212 211 211 210 209 208 208 208 207 209 211 210 206 204 205 208 210 210 210 212 213 215 216 215 217 220 221 221 221 221 219 218 221 224 224 225 227 231 228 216 206
5 4 0 355 346 341 338 336 337 337 336 336 334 334 336 331 327 333 335 330 333 340 331 315 291 263 253 244 242 242 243 243 239 237 238 236 237 235 232 231 228 221 212 208 209 209 208 208 209 208 207 207 208 208 208 211 211 208 205 204 206 209 210 210 211 212 214 214 214 216 218 220 221 223 227 226 223 223 224 224 225 228 233 230 215 206
5 4 2 358 351 343 338 335 337 337 337 340 339 337 339 337 333 335 337 333 335 346 356 334 297 267 258 248 245 248 250 252 246 240 238 234 234 235 229 227 227 220 213 209 207 205 205 205 206 206 206 206 208 208 208 210 212 209 205 203 205 208 210 210 210 212 213 214 215 216 217 219 220 223 227 230 230 227 224 223 226 229 232 225 209 205
7 4 2 0 354 345 340 337 337 339 341 341 340 339 340 339 339 339 341 339 338 347 359 347 307 278 269 255 253 259 260 259 253 243 238 235 235 236 229 222 223 220 216 213 208 203 203 203 203 204 205 205 207 208 208 210 212 211 207 204 204 207 209 210 210 212 213 214 215 217 218 218 219 222 225 229 231 226 221 222 222 221 221 212 202 206
7 6 3 4 358 347 343 339 337 339 341 341 342 342 341 342 343 341 341 340 341 347 355 354 333 311 294 269 265 271 271 268 260 246 236 233 236 237 231 223 220 219 216 212 208 204 201 201 202 202 202 204 206 207 208 209 211 212 208 205 205 206 208 210 210 212 214 215 216 218 219 220 220 221 223 226 226 221 218 221 219 216 213 205 203 209
7 8 6 8 5 354 347 343 339 340 341 342 343 343 343 344 344 341 339 337 336 339 346 354 346 331 317 282 273 276 275 273 266 253 239 232 233 235 231 226 221 219 215 211 208 204 201 200 201 200 201 203 205 206 207 208 210 212 210 207 206 205 207 209 211 213 215 216 217 217 220 222 221 222 223 222 221 218 219 221 219 217 214 207 208 213
7 9 9 10 9 2 354 348 344 343 343 344 347 348 346 343 340 338 336 333 332 333 338 346 347 334 318 291 285 286 284 281 274 262 247 235 232 231 228 224 222 220 216 213 210 206 202 200 199 200 200 202 204 205 207 207 209 211 211 208 206 205 205 208 210 213 215 217 218 218 221 223 223 225 224 221 220 219 220 221 218 218 216 210 212 216
7 10 12 12 11 6 357 352 351 350 349 351 355 356 351 344 341 341 342 340 338 337 336 340 343 328 305 294 302 304 298 291 280 268 257 244 235 231 226 220 219 219 216 213 210 206 203 200 198 198 199 201 203 204 206 207 207 210 211 209 207 206 205 207 210 213 215 217 218 219 221 224 227 227 223 219 219 219 219 218 215 215 217 215 214 217
8 11 12 10 11 10 3 358 0 1 0 359 1 2 358 354 351 352 352 350 349 346 339 342 349 333 294 287 298 306 305 299 291 277 264 253 243 237 229 220 215 215 215 213 210 206 203 200 197 197 198 200 203 204 205 206 206 209 210 209 208 207 206 207 210 212 215 216 218 219 220 224 225 221 217 217 218 217 215 214 211 213 216 216 215 218
11 12 11 8 9 14 12 7 9 10 8 5 4 4 4 4 2 0 359 357 355 349 340 345 2 354 309 298 299 306 307 300 296 289 271 254 245 241 237 227 217 212 211 211 210 208 205 201 197 195 197 199 201 203 205 206 205 207 210 209 209 208 206 207 210 212 213 215 217 218 217 219 219 216 216 218 214 211 211 210 210 213 215 216 217 219
13 14 14 11 6 7 7 4 8 10 11 12 11 8 7 7 7 6 3 1 359 351 342 348 6 9 337 322 316 313 313 309 301 294 282 264 247 240 239 236 226 215 210 207 207 208 207 204 199 196 196 197 200 202 204 206 205 205 208 209 209 208 208 208 210 211 212 213 215 215 214 216 218 218 219 216 209 207 208 209 211 214 215 217 218 219
13 12 15 12 3 356 355 359 6 10 14 17 16 14 12 8 8 9 9 10 11 1 345 339 355 5 350 337 331 323 320 321 315 303 290 277 259 241 235 236 232 223 215 209 206 206 206 205 203 200 197 196 199 201 203 205 204 204 207 208 208 209 209 210 210 209 209 211 212 212 213 215 218 218 218 214 208 207 209 210 213 214 215 217 218 219
11 8 7 7 0 355 355 0 6 10 16 20 20 19 16 10 9 10 12 17 22 18 2 343 348 360 354 339 332 329 325 321 316 309 296 281 269 249 234 231 231 227 221 214 208 205 204 204 204 203 200 197 198 200 202 205 204 203 204 206 207 209 210 211 211 209 208 209 210 212 213 214 215 217 216 214 211 209 210 212 213 213 214 216 218 220
6 5 4 1 356 352 352 357 1 4 12 20 21 19 16 13 12 14 15 18 21 26 23 1 349 355 358 349 336 331 329 326 320 318 310 293 278 262 242 231 227 225 222 218 213 208 204 203 204 204 202 200 198 199 201 204 204 202 203 205 206 209 210 211 210 209 209 210 210 212 213 213 215 216 215 214 213 211 211 213 213 212 213 216 218 220
359 358 360 357 352 349 348 351 354 357 5 14 17 15 13 12 14 19 23 23 21 20 18 4 348 351 358 359 351 342 337 334 327 320 312 301 289 275 256 238 227 222 220 218 216 213 208 203 202 203 204 202 199 199 200 202 203 202 202 203 205 208 210 210 209 209 210 211 211 212 212 213 216 217 214 214 214 212 211 213 213 212 214 218 220 222
353 351 353 355 350 347 348 349 350 353 1 9 12 11 10 10 13 20 28 30 23 12 7 1 354 351 354 357 356 350 341 335 331 322 314 308 298 286 271 251 233 223 220 217 215 214 212 207 202 202 203 203 201 199 200 201 201 201 201 202 204 207 209 209 208 208 209 211 212 213 213 213 215 215 214 215 215 212 211 212 212 213 216 220 222 223
347 346 346 351 351 346 347 348 349 353 359 5 11 11 9 9 11 16 24 29 25 13 4 0 354 348 349 352 352 349 340 334 330 324 318 315 310 297 278 261 241 225 220 217 213 212 214 211 205 202 202 202 202 201 200 200 199 199 200 201 203 206 207 207 207 207 209 210 211 213 214 214 214 213 212 214 214 212 211 212 213 215 218 220 222 224
340 340 341 345 350 347 344 344 345 348 352 360 8 8 6 8 10 11 15 20 21 18 12 4 357 349 345 345 346 346 341 334 328 323 320 318 315 306 284 265 249 230 219 217 214 210 211 212 209 205 201 201 201 202 202 201 199 198 199 201 203 205 206 206 205 206 209 209 210 213 214 215 213 210 210 212 212 211 211 213 216 218 219 220 222 223
335 339 341 343 346 348 348 343 339 342 349 355 356 356 1 6 7 10 11 8 10 13 12 6 2 357 350 348 349 345 343 339 331 324 324 323 317 308 288 268 254 235 220 215 214 210 209 210 211 208 203 201 200 201 202 201 199 198 198 200 203 205 205 204 204 205 207 208 209 212 214 214 212 209 209 211 210 209 212 215 218 220 220 220 221 224
330 338 342 344 345 349 351 344 337 341 348 352 353 358 3 6 6 8 10 5 3 6 7 6 4 360 357 4 8 358 352 349 338 329 329 326 317 301 279 266 256 238 222 215 213 211 208 207 210 209 206 202 200 199 200 201 199 199 199 200 203 204 204 204 204 205 206 207 209 211 213 214 212 208 208 207 206 208 214 216 216 218 220 221 223 225
321 334 341 345 347 351 352 343 338 345 350 353 4 8 5 4 5 6 5 0 0 6 8 6 4 5 9 12 10 4 0 354 342 336 335 330 319 300 280 267 254 236 222 214 210 209 207 205 207 208 207 204 200 199 199 199 199 198 199 202 204 203 203 203 203 204 205 207 209 210 212 214 211 207 206 204 204 209 214 215 215 216 217 220 222 223
316 330 338 341 344 355 356 343 339 350 356 359 8 10 7 6 5 6 5 1 2 7 9 7 7 12 16 12 9 7 4 357 349 345 342 335 324 307 280 261 246 230 219 212 209 208 206 203 203 205 207 205 201 199 198 197 198 198 199 202 204 203 203 203 203 203 205 207 208 209 211 212 208 204 203 203 205 210 213 213 215 215 216 219 221 220
314 325 332 333 340 352 355 346 342 351 4 11 10 4 9 12 11 13 12 7 7 9 9 10 11 14 14 11 10 10 6 360 354 351 347 339 328 314 284 256 234 221 215 210 207 207 205 202 201 202 204 205 202 199 198 196 197 198 199 202 204 204 204 203 202 203 205 207 207 208 210 209 203 200 200 204 208 211 213 213 215 215 216 217 216 215
315 320 324 328 336 345 351 350 345 344 359 16 21 17 15 16 19 20 14 9 12 13 11 13 16 17 15 12 11 11 9 4 358 355 352 344 332 316 286 253 225 217 213 207 202 203 202 200 198 198 201 203 202 200 198 197 197 199 200 202 204 204 204 203 202 203 205 206 206 208 209 207 202 200 203 208 211 213 213 214 215 214 214 215 214 215
319 314 318 329 337 340 343 345 341 338 350 14 24 23 18 18 22 21 14 11 15 16 14 14 17 18 15 10 9 9 8 5 2 2 1 357 346 315 258 225 210 211 207 200 196 196 195 195 194 195 197 199 200 199 198 197 198 200 200 201 203 204 204 203 202 203 205 204 204 206 209 209 206 204 205 207 210 213 214 214 213 212 212 214 216 217
340 332 328 334 335 333 334 338 342 346 354 13 24 21 17 20 21 19 22 23 19 18 17 14 13 15 11 4 5 7 6 6 6 7 12 14 11 354 156 105 136 182 187 188 189 190 190 190 189 190 193 195 197 198 198 198 199 200 200 201 202 203 203 203 202 203 204 204 204 205 208 209 209 208 206 205 208 213 215 215 214 213 212 215 219 220
347 343 336 332 331 330 331 333 339 349 356 9 21 20 19 20 12 10 26 29 21 18 18 12 9 10 6 2 5 9 11 13 12 12 17 23 26 40 107 94 97 136 161 175 181 184 185 185 184 186 189 191 193 195 197 198 199 199 200 202 202 202 202 202 202 203 204 204 204 205 206 208 208 207 207 208 210 214 217 217 216 215 215 218 221 223
344 336 329 326 327 327 326 328 336 349 355 0 13 20 21 19 12 17 27 26 20 18 16 8 5 7 6 5 11 16 17 17 17 17 20 26 31 46 91 108 103 114 142 162 170 174 177 177 178 182 186 187 189 192 195 197 198 198 199 201 202 202 201 201 201 201 203 205 206 206 206 207 207 206 208 210 212 214 217 218 217 217 218 221 224 225
343 335 325 320 320 320 325 335 342 347 348 355 9 17 18 19 21 25 27 23 17 15 12 5 3 7 8 8 14 23 25 25 25 24 23 28 33 42 66 97 111 124 145 157 161 164 167 170 173 179 182 184 186 190 193 195 196 196 198 200 200 200 200 200 200 200 201 204 206 207 207 207 206 206 208 211 212 215 217 219 218 218 219 222 225 226
345 345 333 317 311 307 313 328 335 333 340 357 13 17 18 21 23 23 24 20 13 11 10 5 2 6 9 11 19 31 30 28 30 28 27 34 40 43 53 78 106 132 154 164 167 168 167 166 168 173 177 180 185 189 192 192 192 194 195 197 198 199 200 200 199 199 200 203 205 208 209 209 207 207 209 212 214 216 219 220 220 220 221 223 225 226
353 356 355 350 342 320 312 326 342 345 348 360 12 16 15 15 16 16 19 19 13 8 9 7 4 5 10 17 25 27 24 26 31 32 32 40 50 54 58 73 96 118 140 153 159 161 160 159 161 167 173 179 184 187 188 188 189 191 192 195 198 199 200 200 199 199 200 201 204 207 209 210 210 209 210 213 215 217 220 222 222 222 223 223 225 227
8 4 4 3 4 2 350 350 357 356 354 358 6 9 9 9 8 8 11 15 14 10 10 9 7 6 11 19 22 11 3 17 31 35 39 47 57 66 72 82 97 111 123 133 139 143 147 152 159 166 173 179 183 184 184 184 186 188 191 195 198 199 201 201 201 200 200 200 201 203 206 210 212 212 212 214 217 219 222 224 225 225 226 226 227 229
16 11 4 1 3 7 6 2 360 358 358 360 2 2 3 4 5 3 5 10 14 16 14 10 8 8 10 17 18 6 356 16 40 43 46 52 61 75 83 92 105 115 121 128 135 141 148 155 163 169 174 178 181 181 182 183 185 188 191 194 196 199 201 202 202 201 201 201 201 201 203 206 211 213 213 214 217 221 224 226 227 228 229 229 230 234
19 16 9 2 2 4 5 5 360 355 357 0 1 358 357 358 359 359 0 4 9 16 19 13 8 8 9 12 16 13 9 27 56 52 48 53 63 79 92 103 115 124 130 135 140 146 153 159 165 171 175 177 179 180 182 184 187 189 192 194 196 199 201 203 203 203 203 202 202 202 203 204 208 213 214 214 217 222 225 228 229 230 232 233 235 239
18 17 13 7 3 360 359 359 355 350 352 357 357 354 351 350 353 357 359 360 1 6 15 17 11 8 9 11 16 15 14 26 51 54 49 57 66 76 92 110 123 133 141 147 150 155 160 164 168 172 176 178 180 183 185 188 190 192 194 195 198 200 202 203 204 204 204 204 204 205 205 205 208 212 214 215 217 221 226 229 232 233 234 236 238 242
17 16 15 13 9 3 356 349 344 344 347 348 347 347 345 344 348 353 357 358 357 358 6 16 16 9 7 11 14 14 15 23 38 47 51 60 68 74 88 107 126 140 148 154 158 162 167 170 173 176 179 181 184 186 189 193 195 196 198 199 200 202 203 204 205 205 205 205 206 207 208 208 209 212 212 213 217 221 224 228 231 234 235 236 238 241
14 14 14 15 15 14 8 353 338 334 334 335 339 342 340 338 343 350 353 355 356 355 359 9 17 16 9 8 10 12 15 23 30 32 39 55 62 68 85 101 116 137 154 159 162 167 174 177 180 182 183 186 189 192 194 197 199 201 202 203 203 204 205 205 205 204 204 205 206 207 209 211 213 212 209 210 215 220 224 227 230 232 234 234 235 236
12 11 11 11 14 18 18 12 1 347 335 331 335 340 338 334 337 345 350 351 353 355 357 1 11 19 14 7 7 9 13 22 24 19 23 45 51 47 75 98 106 122 145 158 163 168 175 182 187 190 191 192 195 197 199 201 203 205 206 205 206 206 205 204 202 202 204 205 207 208 211 213 214 211 208 209 213 218 221 223 225 227 227 227 227 228